Radiation Dose at Monitoring Post of Fukushima Daini Nuclear Power Station
Date,Time,MP-1(microSv/h),MP-2(microSv/h),MP-3(microSv/h),MP-4(microSv/h),MP-5(microSv/h),MP-6(microSv/h),MP-7(microSv/h),Wind Direction,Wind Velocity(m/s),Rain
2020/02/26,00:00,0.187,0.175,0.272,0.255,0.259,0.149,0.100,northwest,3.2,Yes
2020/02/26,00:10,0.187,0.175,0.274,0.255,0.260,0.150,0.099,north-northwest,3.0,Yes
2020/02/26,00:20,0.188,0.176,0.274,0.254,0.259,0.149,0.100,north-northeast,3.8,Yes
2020/02/26,00:30,0.188,0.177,0.275,0.257,0.260,0.149,0.100,east-northeast,4.6,Yes
2020/02/26,00:40,0.188,0.176,0.275,0.255,0.258,0.148,0.099,east-northeast,4.8,Yes
2020/02/26,00:50,0.186,0.176,0.275,0.255,0.259,0.149,0.099,east-northeast,5.5,Yes
2020/02/26,01:00,0.186,0.174,0.273,0.255,0.259,0.147,0.097,east-northeast,4.2,Yes
2020/02/26,01:10,0.185,0.173,0.273,0.255,0.258,0.147,0.095,east-northeast,3.7,Yes
2020/02/26,01:20,0.184,0.174,0.272,0.253,0.256,0.145,0.095,northeast,3.9,Yes
2020/02/26,01:30,0.182,0.173,0.272,0.252,0.257,0.145,0.094,northeast,3.9,Yes
2020/02/26,01:40,0.182,0.171,0.272,0.253,0.256,0.144,0.093,northeast,2.9,Yes
2020/02/26,01:50,0.183,0.171,0.272,0.252,0.256,0.144,0.092,north,3.0,Yes
2020/02/26,02:00,0.180,0.170,0.271,0.250,0.254,0.142,0.091,north-northeast,2.5,Yes
2020/02/26,02:10,0.181,0.170,0.270,0.252,0.254,0.142,0.089,north-northwest,3.7,Yes
2020/02/26,02:20,0.180,0.170,0.269,0.252,0.256,0.141,0.090,north-northwest,4.5,Yes
2020/02/26,02:30,0.179,0.169,0.271,0.251,0.253,0.141,0.089,north-northwest,5.2,Yes
2020/02/26,02:40,0.179,0.168,0.269,0.250,0.254,0.142,0.089,north-northwest,5.2,Yes
2020/02/26,02:50,0.178,0.168,0.268,0.248,0.253,0.140,0.089,north-northwest,4.7,Yes
2020/02/26,03:00,0.178,0.167,0.268,0.249,0.253,0.139,0.087,north-northwest,5.2,Yes
2020/02/26,03:10,0.178,0.165,0.267,0.247,0.250,0.138,0.086,north-northwest,6.0,Yes
2020/02/26,03:20,0.177,0.166,0.266,0.246,0.250,0.139,0.086,north-northwest,5.6,Yes
2020/02/26,03:30,0.176,0.165,0.265,0.246,0.250,0.137,0.086,north-northwest,5.2,Yes
2020/02/26,03:40,0.176,0.164,0.264,0.245,0.250,0.138,0.086,north-northwest,5.7,Yes
2020/02/26,03:50,0.176,0.162,0.266,0.247,0.249,0.137,0.085,north-northwest,4.9,Yes
2020/02/26,04:00,0.176,0.164,0.265,0.245,0.248,0.136,0.085,north-northwest,6.0,Yes
2020/02/26,04:10,0.175,0.163,0.264,0.244,0.249,0.136,0.085,north-northwest,5.7,Yes
2020/02/26,04:20,0.176,0.163,0.263,0.245,0.247,0.136,0.084,north-northwest,6.1,Yes
2020/02/26,04:30,0.176,0.163,0.264,0.245,0.248,0.135,0.085,north-northwest,6.1,Yes
2020/02/26,04:40,0.177,0.163,0.264,0.244,0.247,0.135,0.084,north-northwest,6.2,Yes
2020/02/26,04:50,0.175,0.163,0.265,0.245,0.249,0.136,0.083,north-northwest,7.4,Yes
2020/02/26,05:00,0.175,0.162,0.264,0.244,0.248,0.136,0.085,north-northwest,6.7,Yes
2020/02/26,05:10,0.176,0.164,0.264,0.246,0.249,0.135,0.084,north-northwest,6.9,Yes
2020/02/26,05:20,0.177,0.163,0.265,0.245,0.248,0.136,0.085,north-northwest,7.3,Yes
2020/02/26,05:30,0.176,0.164,0.264,0.246,0.249,0.137,0.085,northwest,6.6,Yes
2020/02/26,05:40,0.177,0.163,0.265,0.246,0.249,0.138,0.086,north-northwest,7.1,Yes
2020/02/26,05:50,0.176,0.164,0.264,0.247,0.250,0.137,0.086,north-northwest,6.9,Yes
2020/02/26,06:00,0.178,0.165,0.266,0.246,0.250,0.137,0.086,north-northwest,7.8,Yes
2020/02/26,06:10,0.178,0.164,0.266,0.245,0.250,0.139,0.086,north-northwest,7.6,Yes
2020/02/26,06:20,0.177,0.164,0.266,0.246,0.249,0.138,0.086,north-northwest,7.5,Yes
2020/02/26,06:30,0.177,0.164,0.266,0.246,0.250,0.137,0.087,north-northwest,7.4,Yes
2020/02/26,06:40,0.177,0.166,0.267,0.247,0.250,0.137,0.086,north-northwest,8.1,Yes
2020/02/26,06:50,0.177,0.164,0.266,0.246,0.249,0.137,0.086,north-northwest,7.6,Yes
2020/02/26,07:00,0.177,0.164,0.266,0.247,0.251,0.138,0.086,north-northwest,8.1,Yes
2020/02/26,07:10,0.176,0.164,0.266,0.246,0.249,0.138,0.086,north-northwest,7.7,Yes
2020/02/26,07:20,0.177,0.164,0.265,0.246,0.249,0.137,0.086,north-northwest,7.3,Yes
2020/02/26,07:30,0.176,0.164,0.265,0.245,0.249,0.135,0.085,north-northwest,7.8,Yes
2020/02/26,07:40,0.176,0.163,0.265,0.245,0.249,0.136,0.085,northwest,7.7,No
2020/02/26,07:50,0.176,0.162,0.266,0.244,0.248,0.136,0.084,northwest,7.6,No
2020/02/26,08:00,0.175,0.163,0.265,0.246,0.249,0.136,0.085,north-northwest,8.2,No
2020/02/26,08:10,0.176,0.163,0.264,0.245,0.248,0.135,0.084,north-northwest,7.9,Yes
2020/02/26,08:20,0.176,0.162,0.265,0.245,0.247,0.136,0.084,northwest,7.4,No
2020/02/26,08:30,0.176,0.162,0.264,0.244,0.247,0.136,0.083,north-northwest,7.7,No
2020/02/26,08:40,0.175,0.162,0.264,0.245,0.247,0.135,0.083,north-northwest,8.1,No
2020/02/26,08:50,0.175,0.163,0.265,0.245,0.247,0.135,0.083,north-northwest,7.9,No
2020/02/26,09:00,0.174,0.162,0.264,0.245,0.247,0.136,0.083,northwest,6.9,No
2020/02/26,09:10,0.174,0.162,0.265,0.244,0.247,0.134,0.083,north-northwest,6.6,No
2020/02/26,09:20,0.174,0.162,0.263,0.245,0.247,0.135,0.084,north-northwest,7.3,No
2020/02/26,09:30,0.175,0.162,0.264,0.246,0.248,0.135,0.082,northwest,6.6,No
2020/02/26,09:40,0.175,0.161,0.263,0.244,0.248,0.136,0.084,north-northwest,6.3,No
2020/02/26,09:50,0.176,0.163,0.263,0.245,0.248,0.136,0.084,north-northwest,6.2,No
2020/02/26,10:00,0.176,0.161,0.263,0.246,0.249,0.136,0.084,north-northwest,6.3,No
2020/02/26,10:10,0.176,0.162,0.264,0.245,0.247,0.134,0.083,north-northwest,6.5,No
2020/02/26,10:20,0.175,0.164,0.265,0.244,0.247,0.135,0.083,north-northwest,5.9,No
2020/02/26,10:30,0.176,0.162,0.263,0.244,0.248,0.134,0.084,north-northwest,6.4,No
2020/02/26,10:40,0.176,0.163,0.265,0.246,0.247,0.134,0.083,north-northwest,5.9,No
2020/02/26,10:50,0.175,0.163,0.264,0.245,0.248,0.136,0.083,north-northwest,5.1,No
2020/02/26,11:00,0.175,0.161,0.264,0.244,0.249,0.135,0.084,north-northwest,5.1,No
2020/02/26,11:10,0.176,0.162,0.264,0.245,0.248,0.135,0.084,north-northwest,5.4,No
2020/02/26,11:20,0.175,0.162,0.264,0.245,0.247,0.135,0.083,north-northwest,5.1,No
2020/02/26,11:30,0.176,0.163,0.265,0.245,0.250,0.135,0.084,northwest,6.0,No
2020/02/26,11:40,0.176,0.162,0.265,0.245,0.249,0.135,0.084,north-northwest,5.4,No
2020/02/26,11:50,0.175,0.162,0.265,0.246,0.248,0.135,0.084,north-northwest,5.4,No
2020/02/26,12:00,0.175,0.163,0.265,0.246,0.249,0.136,0.083,north-northwest,5.1,No
2020/02/26,12:10,0.176,0.162,0.266,0.245,0.250,0.135,0.084,north-northwest,7.8,No
2020/02/26,12:20,0.175,0.163,0.265,0.246,0.249,0.136,0.084,north-northwest,7.3,No
2020/02/26,12:30,0.176,0.163,0.265,0.246,0.248,0.135,0.083,north-northwest,7.0,No
2020/02/26,12:40,0.176,0.164,0.266,0.245,0.250,0.136,0.084,north-northwest,6.7,No
2020/02/26,12:50,0.176,0.163,0.267,0.246,0.249,0.136,0.083,north-northwest,6.8,No
2020/02/26,13:00,0.176,0.163,0.265,0.247,0.249,0.136,0.083,north-northwest,7.8,No
2020/02/26,13:10,0.176,0.164,0.265,0.245,0.249,0.137,0.084,north-northwest,8.1,No
2020/02/26,13:20,0.177,0.163,0.266,0.246,0.249,0.136,0.083,north-northwest,7.4,No
2020/02/26,13:30,0.175,0.162,0.264,0.248,0.249,0.136,0.084,north-northwest,6.6,No
2020/02/26,13:40,0.175,0.164,0.266,0.247,0.251,0.137,0.084,north-northwest,7.6,No
2020/02/26,13:50,0.176,0.163,0.267,0.246,0.249,0.137,0.084,north-northwest,7.7,No
2020/02/26,14:00,0.177,0.163,0.268,0.247,0.249,0.137,0.084,north-northwest,6.6,No
2020/02/26,14:10,0.176,0.162,0.265,0.246,0.250,0.136,0.084,north-northwest,7.0,No
2020/02/26,14:20,0.175,0.163,0.267,0.247,0.251,0.136,0.083,north-northwest,6.6,No
2020/02/26,14:30,0.177,0.164,0.267,0.247,0.249,0.136,0.084,north-northwest,7.7,No
2020/02/26,14:40,0.176,0.162,0.266,0.248,0.250,0.137,0.084,north-northwest,6.1,No
2020/02/26,14:50,0.176,0.163,0.266,0.246,0.250,0.137,0.084,north-northwest,7.7,Yes
2020/02/26,15:00,0.177,0.165,0.267,0.247,0.251,0.137,0.084,north-northwest,7.3,Yes
2020/02/26,15:10,0.176,0.165,0.268,0.247,0.251,0.137,0.085,north-northwest,6.7,Yes
2020/02/26,15:20,0.176,0.163,0.267,0.248,0.250,0.136,0.084,north-northwest,7.1,Yes
2020/02/26,15:30,0.176,0.164,0.267,0.247,0.251,0.136,0.085,north-northwest,5.5,Yes
2020/02/26,15:40,0.178,0.165,0.268,0.248,0.251,0.137,0.085,north-northwest,7.5,Yes
2020/02/26,15:50,0.177,0.165,0.267,0.248,0.251,0.137,0.085,north-northwest,7.3,No
2020/02/26,16:00,0.177,0.164,0.268,0.248,0.250,0.138,0.085,north-northwest,7.5,No
2020/02/26,16:10,0.176,0.165,0.268,0.246,0.249,0.137,0.085,north-northwest,8.4,No
2020/02/26,16:20,0.177,0.164,0.267,0.247,0.249,0.137,0.084,north-northwest,7.4,No
2020/02/26,16:30,0.176,0.164,0.267,0.248,0.250,0.137,0.084,north-northwest,6.9,No
2020/02/26,16:40,0.178,0.163,0.267,0.246,0.249,0.137,0.084,north-northwest,6.0,No
2020/02/26,16:50,0.177,0.163,0.268,0.248,0.250,0.136,0.085,north,6.2,No
2020/02/26,17:00,0.178,0.165,0.267,0.248,0.250,0.136,0.084,north-northwest,5.0,No
2020/02/26,17:10,0.176,0.163,0.267,0.248,0.249,0.137,0.084,north-northwest,5.7,No
2020/02/26,17:20,0.177,0.164,0.268,0.247,0.250,0.137,0.085,north-northwest,5.5,No
2020/02/26,17:30,0.177,0.164,0.266,0.248,0.249,0.137,0.084,north-northwest,5.8,No
2020/02/26,17:40,0.177,0.163,0.267,0.246,0.250,0.137,0.084,north-northwest,6.9,No
2020/02/26,17:50,0.177,0.163,0.267,0.247,0.250,0.137,0.084,north-northwest,8.1,No
2020/02/26,18:00,0.177,0.164,0.267,0.247,0.249,0.137,0.084,north-northwest,6.8,No
2020/02/26,18:10,0.177,0.164,0.266,0.247,0.249,0.136,0.084,north-northwest,6.1,No
2020/02/26,18:20,0.177,0.164,0.266,0.248,0.249,0.137,0.084,north-northwest,6.6,No
2020/02/26,18:30,0.177,0.165,0.267,0.248,0.249,0.137,0.084,north-northwest,6.4,No
2020/02/26,18:40,0.177,0.164,0.268,0.247,0.248,0.137,0.084,north-northwest,6.4,No
2020/02/26,18:50,0.176,0.165,0.268,0.248,0.249,0.137,0.085,north-northwest,5.7,No
2020/02/26,19:00,0.177,0.164,0.267,0.247,0.250,0.137,0.085,north-northwest,5.6,No
2020/02/26,19:10,0.178,0.164,0.268,0.248,0.249,0.138,0.085,north-northwest,5.6,No
2020/02/26,19:20,0.177,0.163,0.267,0.246,0.250,0.137,0.085,north-northwest,5.8,No
2020/02/26,19:30,0.177,0.164,0.267,0.249,0.249,0.136,0.083,north-northwest,5.9,No
2020/02/26,19:40,0.177,0.164,0.266,0.249,0.250,0.137,0.085,north-northwest,5.2,No
2020/02/26,19:50,0.177,0.164,0.266,0.248,0.249,0.138,0.084,north-northwest,5.5,No
2020/02/26,20:00,0.176,0.164,0.267,0.247,0.249,0.136,0.084,north-northwest,5.1,No
2020/02/26,20:10,0.177,0.164,0.267,0.248,0.249,0.136,0.084,north-northwest,4.5,No
2020/02/26,20:20,0.178,0.163,0.268,0.248,0.249,0.137,0.084,north-northwest,5.0,No
2020/02/26,20:30,0.178,0.164,0.267,0.248,0.249,0.137,0.084,north-northwest,5.5,No
2020/02/26,20:40,0.177,0.164,0.266,0.248,0.249,0.137,0.084,north-northwest,5.6,No
2020/02/26,20:50,0.177,0.164,0.269,0.247,0.250,0.137,0.085,northwest,5.7,No
2020/02/26,21:00,0.177,0.164,0.268,0.248,0.249,0.136,0.083,northwest,5.8,No
2020/02/26,21:10,0.178,0.163,0.266,0.248,0.250,0.137,0.084,northwest,6.0,No
2020/02/26,21:20,0.177,0.163,0.267,0.249,0.250,0.136,0.084,northwest,6.2,No
2020/02/26,21:30,0.177,0.163,0.268,0.247,0.249,0.137,0.084,northwest,5.7,No
2020/02/26,21:40,0.177,0.165,0.268,0.248,0.249,0.137,0.084,northwest,5.4,No
2020/02/26,21:50,0.178,0.164,0.268,0.248,0.249,0.136,0.084,northwest,5.3,No
2020/02/26,22:00,0.177,0.162,0.268,0.249,0.251,0.137,0.084,northwest,5.2,No
2020/02/26,22:10,0.177,0.164,0.266,0.247,0.249,0.136,0.085,northwest,5.8,No
2020/02/26,22:20,0.177,0.164,0.269,0.248,0.248,0.137,0.085,northwest,6.0,No
2020/02/26,22:30,0.177,0.164,0.267,0.247,0.249,0.136,0.084,northwest,5.4,No
2020/02/26,22:40,0.177,0.164,0.267,0.248,0.248,0.136,0.084,northwest,5.1,No
2020/02/26,22:50,0.179,0.164,0.267,0.248,0.250,0.137,0.085,northwest,4.8,No
2020/02/26,23:00,0.177,0.163,0.267,0.247,0.248,0.137,0.084,northwest,5.8,No
2020/02/26,23:10,0.177,0.164,0.267,0.248,0.250,0.136,0.085,northwest,6.3,No
2020/02/26,23:20,0.177,0.163,0.266,0.247,0.250,0.136,0.085,north-northwest,6.6,No
2020/02/26,23:30,0.178,0.164,0.266,0.249,0.250,0.136,0.084,north-northwest,5.0,No
2020/02/26,23:40,0.178,0.164,0.268,0.248,0.249,0.137,0.085,northwest,6.3,No
2020/02/26,23:50,0.178,0.163,0.269,0.249,0.249,0.137,0.085,north-northwest,7.0,No
